TheGetRank SiteMap Page 2882
Home 2832 2833 2834 2835 2836 2837 2838 2839 2840 2841 2842 2843 2844 2845 2846 2847 2848 2849 2850 2851 2852 2853 2854 2855 2856 2857 2858 2859 2860 2861 2862 2863 2864 2865 2866 2867 2868 2869 2870 2871 2872 2873 2874 2875 2876 2877 2878 2879 2880 2881 2882 2883 2884 2885 2886 2887 2888 2889 2890 2891 2892 2893 2894 2895 2896 2897 2898 2899 2900 2901 2902 2903 2904 2905 2906 2907 2908 2909 2910 2911 2912 2913 2914 2915 2916 2917 2918 2919 2920 2921 2922 2923 2924 2925 2926 2927 2928 2929 2930 2931 2932
S.NO. Website Pagerank Alexa Rank Last Updated
2881000 tagesausfluege.ch 0 No Rank 2011-09-29 04:25:00
2881001 brandonlanger.com 0 1646787 2011-09-29 04:25:07
2881002 dhcchina.org 0 No Rank 2011-09-29 04:25:09
2881003 bank.ganjawars.ru 3 27696 2011-09-29 04:25:14
2881004 zishengtang.info 0 No Rank 2011-09-29 04:25:17
2881005 gymnasticpins.com 2 19230944 2011-09-29 04:25:27
2881006 jeanienetwork.com 2 No Rank 2011-09-29 04:25:33
2881007 basildalton49392.webs.com 0 No Rank 2011-09-29 04:25:34
2881008 www1.davidson.edu 7 100590 2011-09-29 04:25:36
2881009 metrotele.com 2 4295195 2011-09-29 04:25:37
2881010 ihdentistry.com 2 4405827 2011-09-29 04:25:40
2881011 edwatersandsons.com 2 22014825 2011-09-29 04:25:40
2881012 gogmember.gog.org 0 24618633 2011-09-29 04:25:43
2881013 denverhomesells.com 1 No Rank 2011-09-29 04:25:44
2881014 steinbacher.nl 0 No Rank 2011-09-29 04:25:47
2881015 neonlollipops.com 4 4684632 2011-09-29 04:25:49
2881016 consortiumforpsychotherapy.com 1 No Rank 2011-09-29 04:25:51
2881017 ndf-sk.dyndns.org 5 No Rank 2011-09-29 04:25:56
2881018 bjrcinc.com 0 26681711 2011-09-29 04:26:00
2881019 ftf.org.uk 2 244603 2011-09-29 04:26:04
2881020 castlebusiness.nl 3 7327938 2011-09-29 04:26:06
2881021 structured-settlement-data.info 0 No Rank 2011-09-29 04:26:18
2881022 aldi-stores.co.uk 4 1497023 2011-09-29 04:26:23
2881023 spb.uppsen.com 0 14235498 2011-09-29 04:26:25
2881024 bbs.glassofmilkcakecompany.com 0 8325365 2011-09-29 04:26:26
2881025 coosbayonline.com 5 10148269 2011-09-29 04:26:26
2881026 flipflopscity.com 4 283684 2011-09-29 04:26:32
2881027 bridgeview-il.gov 4 20354469 2011-09-29 04:26:38
2881028 weather.glassofmilkcakecompany.com 0 8325365 2011-09-29 04:26:39
2881029 gennarocarotenuto.it 5 644249 2011-09-29 04:26:45
2881030 publish.amchp.org 6 4252994 2011-09-29 04:26:49
2881031 blackfridayun55d80003dled.com 0 No Rank 2011-09-29 04:26:49
2881032 commission-central.glassofmilkcakecompany.com 0 8325365 2011-09-29 04:26:51
2881033 bbs.diskonheboh.com 0 1040093 2011-09-29 04:26:52
2881034 fr.3planesoft.com 2 166118 2011-09-29 04:26:55
2881035 women.glassofmilkcakecompany.com 0 8325365 2011-09-29 04:26:56
2881036 premiumwinner.com 0 17659954 2011-09-29 04:26:59
2881037 dorohoi-online.ro 1 No Rank 2011-09-29 04:27:05
2881038 coxresearch.com 2 14763852 2011-09-29 04:27:10
2881039 centrinogroup.com 0 2779059 2011-09-29 04:27:13
2881040 personalshots.com 1 No Rank 2011-09-29 04:27:16
2881041 weather.diskonheboh.com 0 1040093 2011-09-29 04:27:21
2881042 groupwise.bvu.edu 5 387053 2011-09-29 04:27:25
2881043 coachrodriguez.com 0 No Rank 2011-09-29 04:27:35
2881044 forums-fr.ubi.com 4 3040 2011-09-29 04:27:36
2881045 pet8.com 0 No Rank 2011-09-29 04:27:38
2881046 basildalton49.xanga.com 0 2752 2011-09-29 04:27:42
2881047 photos.cricou.net 3 3559576 2011-09-29 04:27:43
2881048 www1.goodcook.com 0 1226373 2011-09-29 04:27:45
2881049 commission-central.diskonheboh.com 0 1040093 2011-09-29 04:27:46
2881050 mcphersonlabs.com 0 No Rank 2011-09-29 04:27:49
2881051 women.diskonheboh.com 0 1040093 2011-09-29 04:27:50
2881052 stephenmalkmus.com 4 244719 2011-09-29 04:27:52
2881053 indigoairways.com 6 4439338 2011-09-29 04:27:57
2881054 milehighmamas.com 5 190079 2011-09-29 04:28:01
2881055 barnardsschwinn.com 3 16645297 2011-09-29 04:28:08
2881056 deltakappadelta.com 5 21639291 2011-09-29 04:28:10
2881057 hkhkronprinsen.dk 5 24957128 2011-09-29 04:28:10
2881058 nashvillemall.com 1 No Rank 2011-09-29 04:28:10
2881059 sunevamedical.com 3 3884699 2011-09-29 04:28:14
2881060 omega.bluek.co.jp 0 154022 2011-09-29 04:28:17
2881061 decisioneconomics.com 2 19974448 2011-09-29 04:28:17
2881062 bjrinfotech.com 0 No Rank 2011-09-29 04:28:19
2881063 bjurstromstra.se 2 No Rank 2011-09-29 04:28:24
2881064 nhacviet.gastroenterologyliverandnutritionpdiatrics.wordpress.com 0 No Rank 2011-09-29 04:28:34
2881065 support.hyperconversion.com 0 1417015 2011-09-29 04:28:38
2881066 ashtangayoga.co.il 2 12674840 2011-09-29 04:28:39
2881067 marshallsjewelersonline.com 2 No Rank 2011-09-29 04:28:40
2881068 bbs.gastroenterologyliverandnutritionpdiatrics.wordpress.com 0 No Rank 2011-09-29 04:28:40
2881069 talladegafiberglass.com 1 8335531 2011-09-29 04:28:44
2881070 chroma-crystal.com 0 No Rank 2011-09-29 04:28:48
2881071 www2.bingoshop.com 6 2949437 2011-09-29 04:28:51
2881072 point.glassofmilkcakecompany.com 0 8325365 2011-09-29 04:28:52
2881073 cars-of-europe.com 2 3222163 2011-09-29 04:28:54
2881074 toronto.en.glassofmilkcakecompany.com 0 8325365 2011-09-29 04:28:54
2881075 trojita.flaska.net 4 9623670 2011-09-29 04:28:57
2881076 partners.rinnai.us 2 271900 2011-09-29 04:29:00
2881077 chatboards.ebay.in 0 697 2011-09-29 04:29:05
2881078 web.bridgespan.com 6 5207852 2011-09-29 04:29:08
2881079 andrew-becraft.com 1 No Rank 2011-09-29 04:29:13
2881080 davetepper.net 4 No Rank 2011-09-29 04:29:15
2881081 blqy.newbeilun.com 3 16978276 2011-09-29 04:29:16
2881082 saiexp.com 2 No Rank 2011-09-29 04:29:16
2881083 webdb.navca.org.uk 4 2118262 2011-09-29 04:29:19
2881084 peetconsulting.com 0 No Rank 2011-09-29 04:29:22
2881085 encorekilmarnock.com 1 No Rank 2011-09-29 04:29:22
2881086 gotweety.com 0 No Rank 2011-09-29 04:29:25
2881087 ubbxforums.ubi.com 5 3040 2011-09-29 04:29:25
2881088 secure.emmedia.com 0 2019712 2011-09-29 04:29:27
2881089 zerosoundtrack.com 0 No Rank 2011-09-29 04:29:34
2881090 flaghillwinery.com 4 No Rank 2011-09-29 04:29:38
2881091 baystatehealth.org 5 2154226 2011-09-29 04:29:42
2881092 matriculas.cng.edu 0 2087203 2011-09-29 04:29:47
2881093 point.diskonheboh.com 0 1040093 2011-09-29 04:29:47
2881094 toronto.en.diskonheboh.com 0 1040093 2011-09-29 04:29:51
2881095 dksinteractive.com 2 No Rank 2011-09-29 04:29:57
2881096 basildalton49.insanejournal.com 0 5024 2011-09-29 04:30:00
2881097 sufficientself.com 3 378241 2011-09-29 04:30:21
2881098 shop2.goodcook.com 4 1226373 2011-09-29 04:30:24
2881099 m.gcflearnfree.org 5 49232 2011-09-29 04:30:29
2881100 arts.du.cirque.com 5 2296087 2011-09-29 04:30:34
2881101 www1.bingoshop.com 6 2949437 2011-09-29 04:30:42
2881102 dmarcoservices.com 0 No Rank 2011-09-29 04:30:45
2881103 goodnight-moon.com 0 No Rank 2011-09-29 04:30:49
2881104 fasthomeoffers.com 3 7474896 2011-09-29 04:30:57
2881105 youtoucantour.com.au 3 20036752 2011-09-29 04:30:58
2881106 aboutmybolivia.com 0 No Rank 2011-09-29 04:31:03
2881107 support.ruttensoft.com 0 7956445 2011-09-29 04:31:03
2881108 games.glassofmilkcakecompany.com 0 8325365 2011-09-29 04:31:03
2881109 cheaterswanted.com 3 17652102 2011-09-29 04:31:42
2881110 sovereigngraceanniston.com 2 No Rank 2011-09-29 04:31:44
2881111 staging.aimnet.org 0 2146528 2011-09-29 04:31:52
2881112 allclearpools.com 1 6672101 2011-09-29 04:31:52
2881113 design.atompro.net 2 179323 2011-09-29 04:31:54
2881114 support.arvixe.com 5 3572 2011-09-29 04:31:57
2881115 games.diskonheboh.com 0 1040093 2011-09-29 04:32:15
2881116 istanbul.info.tr.pe 0 No Rank 2011-09-29 04:32:21
2881117 mb.glassofmilkcakecompany.com 0 8325365 2011-09-29 04:32:37
2881118 host5.appleton.org 0 471463 2011-09-29 04:32:39
2881119 cse.cc.affrc.go.jp 0 76202 2011-09-29 04:32:49
2881120 indexed.glassofmilkcakecompany.com 0 8325365 2011-09-29 04:32:50
2881121 katelynnobrien.com 0 No Rank 2011-09-29 04:32:56
2881122 support.kineticdata.com 2 1066434 2011-09-29 04:32:57
2881123 allaboutquitam.org 3 No Rank 2011-09-29 04:33:01
2881124 pokerinflorida.com 0 No Rank 2011-09-29 04:33:05
2881125 whois.cheapies.com 2 3493609 2011-09-29 04:33:11
2881126 verifiedvoting.com 6 No Rank 2011-09-29 04:33:22
2881127 swf2go.com 3 1086226 2011-09-29 04:33:24
2881128 zylogistics.com 0 No Rank 2011-09-29 04:33:29
2881129 zwisler.de 3 11995358 2011-09-29 04:33:31
2881130 article.ez-game.cn 0 No Rank 2011-09-29 04:33:32
2881131 zwibaek.com 1 3808437 2011-09-29 04:33:34
2881132 zwcad.hr 1 15060779 2011-09-29 04:33:36
2881133 zvona.com 2 26709100 2011-09-29 04:33:38
2881134 admissions.cia.edu 6 410090 2011-09-29 04:33:40
2881135 zvinakeviciene.puslapiai.lt 2 97898 2011-09-29 04:33:41
2881136 zuzu.hu 4 12541914 2011-09-29 04:33:45
2881137 secure.thebody.com 0 31743 2011-09-29 04:33:45
2881138 zuvivaisa.lt 5 No Rank 2011-09-29 04:33:47
2881139 mb.diskonheboh.com 0 1040093 2011-09-29 04:33:50
2881140 citroen.cricou.net 0 3559576 2011-09-29 04:33:51
2881141 forums.glassofmilkcakecompany.com 0 8325365 2011-09-29 04:33:51
2881142 zsp.wolakielpinska.of.pl 2 117176 2011-09-29 04:33:52
2881143 bkfrepair.net 3 2823581 2011-09-29 04:33:53
2881144 zsii.com 2 No Rank 2011-09-29 04:33:56
2881145 wildvogelhilfe.org 4 845244 2011-09-29 04:33:58
2881146 zuid-bohemen.bungalowseuropa.nl 0 25722615 2011-09-29 04:33:58
2881147 zrb-kominki.com.pl 0 No Rank 2011-09-29 04:34:01
2881148 bkconstructionsite.com 0 No Rank 2011-09-29 04:34:02
2881149 zornmolds.com 2 14535277 2011-09-29 04:34:06
2881150 lulala.cc 2 26756916 2011-09-29 04:34:07
2881151 zoomout.ca 3 No Rank 2011-09-29 04:34:11
2881152 zootcat.nl 1 No Rank 2011-09-29 04:34:11
2881153 indexed.diskonheboh.com 0 1040093 2011-09-29 04:34:13
2881154 viper-israel.co.il 0 5824299 2011-09-29 04:34:14
2881155 media.davesite.com 0 72728 2011-09-29 04:34:20
2881156 zodiac-tattoos.com 0 No Rank 2011-09-29 04:34:21
2881157 marcosodonne37774.webs.com 0 No Rank 2011-09-29 04:34:23
2881158 zimcricketforums.com 2 3489700 2011-09-29 04:34:24
2881159 zoekdeshop.com 2 No Rank 2011-09-29 04:34:25
2881160 bbc.net 4 973195 2011-09-29 04:34:25
2881161 zielarnia.pl 4 4675829 2011-09-29 04:34:37
2881162 ziche.net 2 1268511 2011-09-29 04:34:38
2881163 zeim.pr.radom.pl 1 908915 2011-09-29 04:34:49
2881164 games.zsnare.com 0 1340127 2011-09-29 04:34:51
2881165 zebraclassic.org 0 No Rank 2011-09-29 04:34:53
2881166 grandjumbo.com.tw 2 No Rank 2011-09-29 04:34:58
2881167 zeastylesg.net 1 16165647 2011-09-29 04:34:58
2881168 zcars-algarve.com 1 No Rank 2011-09-29 04:35:05
2881169 zhufairah.com 0 No Rank 2011-09-29 04:35:06
2881170 zazupannee.com 2 No Rank 2011-09-29 04:35:08
2881171 zarthaustin.com 0 No Rank 2011-09-29 04:35:09
2881172 forums.diskonheboh.com 0 1040093 2011-09-29 04:35:12
2881173 syrjamedia.fi 0 No Rank 2011-09-29 04:35:16
2881174 zamtsu.com 1 12016474 2011-09-29 04:35:16
2881175 zamanafoundation.org 1 No Rank 2011-09-29 04:35:22
2881176 zambrowiacy.com 0 No Rank 2011-09-29 04:35:23
2881177 zabihzaca.com 0 No Rank 2011-09-29 04:35:27
2881178 zaislai.puslapiai.lt 0 97898 2011-09-29 04:35:28
2881179 maps.free-contests.andrinda.net 0 2717518 2011-09-29 04:35:31
2881180 yuriko1999.com 2 8474296 2011-09-29 04:35:34
2881181 yu-tubes.com 0 20175734 2011-09-29 04:35:39
2881182 yrdsummercamp.org 0 No Rank 2011-09-29 04:35:42
2881183 yourvalleybuilder.com 0 No Rank 2011-09-29 04:35:49
2881184 yovillesecretsreview.com 1 19248434 2011-09-29 04:35:50
2881185 yoursoapbox.com 1 4434796 2011-09-29 04:35:53
2881186 yournextjury.com 3 No Rank 2011-09-29 04:35:54
2881187 yourgardenplanner.com 0 No Rank 2011-09-29 04:35:57
2881188 ceritadewasa.webnode.com 0 2992 2011-09-29 04:35:59
2881189 youretheyouth.org 2 4532163 2011-09-29 04:36:00
2881190 waynet-reviews.com 0 No Rank 2011-09-29 04:36:06
2881191 yourcollisioncenter.com 1 No Rank 2011-09-29 04:36:06
2881192 youkara.com 2 No Rank 2011-09-29 04:36:07
2881193 youaregodsmiracle.com 0 6704197 2011-09-29 04:36:11
2881194 yoshinoaf.com 0 No Rank 2011-09-29 04:36:17
2881195 yorkswimclub.ca 0 No Rank 2011-09-29 04:36:21
2881196 yogainmiddletown.com 4 No Rank 2011-09-29 04:36:28
2881197 yokesfeedback.com 0 No Rank 2011-09-29 04:36:29
2881198 talat-sao.com 0 13017187 2011-09-29 04:36:30
2881199 ykebana.net 1 No Rank 2011-09-29 04:36:32
2881200 veloavto.site.ge 2 4125875 2011-09-29 04:36:33
2881201 marcosodonne37.xanga.com 0 2752 2011-09-29 04:36:39
2881202 yesongaymarriage.com 4 No Rank 2011-09-29 04:36:43
2881203 yelabuga.ru 3 1524018 2011-09-29 04:36:50
2881204 yeeiplaw.com 1 No Rank 2011-09-29 04:36:52
2881205 mug-i-love.fr.pe 0 No Rank 2011-09-29 04:36:53
2881206 ybsky.cn 3 No Rank 2011-09-29 04:36:59
2881207 yannick.daveiga.free.fr 3 207 2011-09-29 04:37:07
2881208 yamhillgop.org 0 No Rank 2011-09-29 04:37:11
2881209 yahootourism.com 1 2017883 2011-09-29 04:37:16
2881210 yadayadayada.nl 2 No Rank 2011-09-29 04:37:20
2881211 xxxhi.us 0 No Rank 2011-09-29 04:37:25
2881212 ycet.net 2 No Rank 2011-09-29 04:37:27
2881213 xu2.de 0 No Rank 2011-09-29 04:37:28
2881214 cincyauto.com 1 7945769 2011-09-29 04:37:33
2881215 xtremedetail.com 1 No Rank 2011-09-29 04:37:33
2881216 xteldirect.net 0 No Rank 2011-09-29 04:37:36
2881217 agencje-tlumaczen.com.pl 0 No Rank 2011-09-29 04:37:38
2881218 worthofcoins.info 0 No Rank 2011-09-29 04:37:40
2881219 xoffender.com 0 No Rank 2011-09-29 04:37:41
2881220 xpertlink.nl 3 13388604 2011-09-29 04:37:42
2881221 tamilboss.com 1 7766805 2011-09-29 04:37:42
2881222 xocafechinese.com 1 No Rank 2011-09-29 04:37:45
2881223 xn--xkr699fj7kspm.net 1 No Rank 2011-09-29 04:37:49
2881224 xn--x9tzrf6dh0f2nye9ctq6b.com 0 No Rank 2011-09-29 04:37:51
2881225 boston-tea-party.net 2 No Rank 2011-09-29 04:37:51
2881226 xn--x8sye471h.com 2 No Rank 2011-09-29 04:37:55
2881227 xn--uis18l1ointgeqy.net 4 No Rank 2011-09-29 04:37:57
2881228 xn--s3cow7a.com 0 No Rank 2011-09-29 04:38:00
2881229 xn--messerblcke-yfb.com 0 No Rank 2011-09-29 04:38:08
2881230 four.allens.btinternet.co.uk 0 13065 2011-09-29 04:38:09
2881231 xn--l9q181ffrt.com 0 No Rank 2011-09-29 04:38:11
2881232 xn--dqr05gdri.net 4 No Rank 2011-09-29 04:38:15
2881233 xjnjc.com 2 No Rank 2011-09-29 04:38:28
2881234 taye.free.fr 1 207 2011-09-29 04:38:34
2881235 xianlibangqi.com 0 No Rank 2011-09-29 04:38:37
2881236 xeroxcareers.com 6 1083917 2011-09-29 04:38:41
2881237 x-sat.hu 4 No Rank 2011-09-29 04:38:45
2881238 marcosodonne37.insanejournal.com 0 5024 2011-09-29 04:38:48
2881239 wyts.org 1 No Rank 2011-09-29 04:38:51
2881240 wyattassociates.com 0 No Rank 2011-09-29 04:38:54
2881241 procadel.com 0 20587124 2011-09-29 04:38:56
2881242 wya-va.com 0 No Rank 2011-09-29 04:38:59
2881243 wwvi.com 0 No Rank 2011-09-29 04:39:02
2881244 ww1institute.org 1 No Rank 2011-09-29 04:39:10
2881245 wudang.eu 3 No Rank 2011-09-29 04:39:16
2881246 xmpeng.com 0 No Rank 2011-09-29 04:39:19
2881247 wu65wu.net 0 No Rank 2011-09-29 04:39:23
2881248 wtvfd.com 2 No Rank 2011-09-29 04:39:27
2881249 wtwesleyan.org 2 No Rank 2011-09-29 04:39:28
2881250 teamvalleylinks.com 3 626175 2011-09-29 04:39:30
2881251 wshampshire.com 2 9432894 2011-09-29 04:39:32
2881252 wroclaw.biura-rachunkowe.szukajdzialalnosci.pl 0 11422382 2011-09-29 04:39:38
2881253 jiffalight.com 1 No Rank 2011-09-29 04:39:39
2881254 writeplace.info 1 No Rank 2011-09-29 04:39:39
2881255 wrestlingunivers.com 2 864639 2011-09-29 04:39:42
2881256 wrighttrans.com 1 8501630 2011-09-29 04:39:44
2881257 wrecking-balm-reviews.com 1 19517893 2011-09-29 04:39:50
2881258 tech-lounge.netai.net 0 27851 2011-09-29 04:39:50
2881259 wowtextures.com 3 5555686 2011-09-29 04:39:50
2881260 cyprusabc.com 3 7097721 2011-09-29 04:39:51
2881261 worshiptothenations.com 1 No Rank 2011-09-29 04:39:54
2881262 worldinternetsummittraining.com 2 5337159 2011-09-29 04:39:55
2881263 worldblessingchurch.org 0 No Rank 2011-09-29 04:40:01
2881264 worldequestrianbrands.com 3 9310597 2011-09-29 04:40:03
2881265 workwanted.ca 3 5309626 2011-09-29 04:40:09
2881266 grouptoursbranson.com 2 14918215 2011-09-29 04:40:11
2881267 tech-taea.org 3 6580860 2011-09-29 04:40:13
2881268 workflexsolutions.com 2 No Rank 2011-09-29 04:40:13
2881269 workathomejobs-guide.com 2 4450271 2011-09-29 04:40:17
2881270 workandprocess.com 1 No Rank 2011-09-29 04:40:20
2881271 kalamazoorealestate.com 1 19724428 2011-09-29 04:40:21
2881272 wordtimesposter.com 0 No Rank 2011-09-29 04:40:22
2881273 wordsdance.com 4 5645128 2011-09-29 04:40:26
2881274 medicaldiscountsales.com 2 21863382 2011-09-29 04:40:28
2881275 woodstockcad.com 0 No Rank 2011-09-29 04:40:32
2881276 wondrheart.org 0 No Rank 2011-09-29 04:40:34
2881277 womensbusinessexpocody.com 2 No Rank 2011-09-29 04:40:36
2881278 wolsztyn.com.pl 2 No Rank 2011-09-29 04:40:40
2881279 wolfcobailiff.info 0 No Rank 2011-09-29 04:40:41
2881280 pizzeriaavellino.com 2 20546162 2011-09-29 04:40:44
2881281 wodociagi-kanalizacja.pruszkow.firmy-24h.pl 0 3548682 2011-09-29 04:40:47
2881282 wkwdesign.de 0 14486029 2011-09-29 04:40:52
2881283 mrcoffeemaker.net 0 26281086 2011-09-29 04:40:53
2881284 wodadladziecka.pl 4 5679472 2011-09-29 04:40:53
2881285 wizardingworldharrypotter.com 4 728604 2011-09-29 04:41:00
2881286 wiseturns.com 1 No Rank 2011-09-29 04:41:02
2881287 wiserdevelopment.com 1 No Rank 2011-09-29 04:41:03
2881288 wirbelseule.de 0 15117541 2011-09-29 04:41:10
2881289 wiselawpllc.com 1 13749069 2011-09-29 04:41:11
2881290 bkmservicesnwltd.co.uk 0 No Rank 2011-09-29 04:41:15
2881291 winterweide.de.vu 0 No Rank 2011-09-29 04:41:17
2881292 winterheat.info 0 No Rank 2011-09-29 04:41:21
2881293 onlinelawresources.com 1 26290234 2011-09-29 04:41:22
2881294 iam-who-iam.com 0 19993613 2011-09-29 04:41:22
2881295 winterwymantalks.com 4 14753487 2011-09-29 04:41:23
2881296 wintechfibreglass.com 0 No Rank 2011-09-29 04:41:26
2881297 winnipegchristmaslights.com 1 No Rank 2011-09-29 04:41:27
2881298 bkjappleorchard.net 0 No Rank 2011-09-29 04:41:27
2881299 winnaman.com 1 8243692 2011-09-29 04:41:29
2881300 bkppower.com 0 No Rank 2011-09-29 04:41:34
2881301 wingsoverusa.com 1 No Rank 2011-09-29 04:41:35
2881302 wingatehotelnyc.com 4 3099419 2011-09-29 04:41:38
2881303 tennisclub.glassofmilkcakecompany.com 0 8325365 2011-09-29 04:41:38
2881304 bkwdschool.org 1 20344469 2011-09-29 04:41:39
2881305 wingate.org.il 5 1024291 2011-09-29 04:41:42
2881306 windowanddoorrepairs.ie 0 10869250 2011-09-29 04:41:42
2881307 black-hearts.12see.de 1 235148 2011-09-29 04:41:43
2881308 black-hats.com 0 27926483 2011-09-29 04:41:46
2881309 windamarbeachclub.com 3 No Rank 2011-09-29 04:41:47
2881310 windfashion.net 1 No Rank 2011-09-29 04:41:47
2881311 mycrescent.com 2 18290334 2011-09-29 04:41:48
2881312 black-diamonds.org.uk 3 No Rank 2011-09-29 04:41:49
2881313 wilsonalumni.com 2 No Rank 2011-09-29 04:41:51
2881314 bedlinerfortrucks.com 1 2540506 2011-09-29 04:41:54
2881315 cnmarkets.tv 0 No Rank 2011-09-29 04:41:59
2881316 cheapestsr22.com 1 3825086 2011-09-29 04:42:04
2881317 williestire.com 0 No Rank 2011-09-29 04:42:06
2881318 forums.uppsen.com 0 14235498 2011-09-29 04:42:07
2881319 penguin-modding.nice-board.net 0 1073958 2011-09-29 04:42:12
2881320 williamshighschool.org 1 No Rank 2011-09-29 04:42:30
2881321 wilmotmountainfleamarket.net 3 5323619 2011-09-29 04:42:37
2881322 diamondlifecreators.com 1 10057310 2011-09-29 04:42:37
2881323 willebroek.info 4 No Rank 2011-09-29 04:42:40
2881324 wilkes-rowe.com 3 13398027 2011-09-29 04:42:45
2881325 wildvenisonrecipes.com 0 No Rank 2011-09-29 04:42:49
2881326 mightylib.siuntucentras.lt 0 12251895 2011-09-29 04:42:56
2881327 wsjr.glassofmilkcakecompany.com 0 8325365 2011-09-29 04:42:56
2881328 williammacedo.com 1 11211385 2011-09-29 04:42:57
2881329 sbscouts.org 1 10930428 2011-09-29 04:42:58
2881330 wikiszotar.hu 3 980281 2011-09-29 04:43:07
2881331 wild2day.org 3 595766 2011-09-29 04:43:09
2881332 tennisclub.diskonheboh.com 0 1040093 2011-09-29 04:43:11
2881333 wigoder.com 0 No Rank 2011-09-29 04:43:11
2881334 wiersze24.pl 3 2180215 2011-09-29 04:43:16
2881335 laurencelope511795.webs.com 0 No Rank 2011-09-29 04:43:19
2881336 fudanpress.com.cn 7 2933833 2011-09-29 04:43:22
2881337 whufc.pl 3 17466741 2011-09-29 04:43:36
2881338 inads.info 0 4419702 2011-09-29 04:43:45
2881339 whs-football.com 0 No Rank 2011-09-29 04:43:45
2881340 who-hub.com 0 412959 2011-09-29 04:43:52
2881341 whitneyoaksinsurance.com 1 No Rank 2011-09-29 04:43:56
2881342 wsjr.diskonheboh.com 0 1040093 2011-09-29 04:43:57
2881343 whitehotsmileteethwhiteningsaskatchewan.com 0 20838360 2011-09-29 04:43:59
2881344 whiteboxsolutions.com 2 No Rank 2011-09-29 04:44:09
2881345 widerworld.vn 0 28930634 2011-09-29 04:44:13
2881346 whiteapple.ca 2 2949442 2011-09-29 04:44:15
2881347 whitakerconstructionnm.com 0 No Rank 2011-09-29 04:44:17
2881348 kcbminc.com 3 No Rank 2011-09-29 04:44:18
2881349 weather.news.glassofmilkcakecompany.com 0 8325365 2011-09-29 04:44:18
2881350 whisperingriverfarm.com 1 No Rank 2011-09-29 04:44:22
2881351 whichadpulledbest.com 3 No Rank 2011-09-29 04:44:24
2881352 bestlaptopprices.org.uk 0 No Rank 2011-09-29 04:44:28
2881353 whelanacademy.com 0 No Rank 2011-09-29 04:44:30
2881354 wherearethejobsat.com 0 18088620 2011-09-29 04:44:32
2881355 whc-consulting.net 0 No Rank 2011-09-29 04:44:40
2881356 whatsminecraftsvalue.com 0 23822886 2011-09-29 04:44:49
2881357 whatiwatched.info 0 No Rank 2011-09-29 04:44:54
2881358 whatistheanswer.ca 1 No Rank 2011-09-29 04:44:56
2881359 dragonfireworks.glassofmilkcakecompany.com 0 8325365 2011-09-29 04:44:57
2881360 article.glassofmilkcakecompany.com 0 8325365 2011-09-29 04:45:00
2881361 westwoodcycle.ca 4 2127362 2011-09-29 04:45:07
2881362 actor.glassofmilkcakecompany.com 0 8325365 2011-09-29 04:45:10
2881363 westshoreaware.org 1 No Rank 2011-09-29 04:45:16
2881364 westlinngirlsbasketball.com 1 No Rank 2011-09-29 04:45:17
2881365 westernstateswc.com 1 No Rank 2011-09-29 04:45:19
2881366 westendclaybrick.co.za 1 6536620 2011-09-29 04:45:22
2881367 westdalebaseball.com 0 No Rank 2011-09-29 04:45:26
2881368 westcountybamboo.com 2 No Rank 2011-09-29 04:45:29
2881369 westcoasthotrod.com 3 10475167 2011-09-29 04:45:30
2881370 westchesteryrs.com 2 No Rank 2011-09-29 04:45:33
2881371 westchesterumc.org 1 No Rank 2011-09-29 04:45:37
2881372 werkhaus.ch 2 5310240 2011-09-29 04:45:41
2881373 ipn.eu 2 25267848 2011-09-29 04:45:42
2881374 wepillagethevillage.com 1 3206196 2011-09-29 04:45:43
2881375 wennstrom.org 0 No Rank 2011-09-29 04:45:46
2881376 cww.dk 4 No Rank 2011-09-29 04:45:48
2881377 wendy-s.nl 0 No Rank 2011-09-29 04:45:50
2881378 wendywray.com 2 No Rank 2011-09-29 04:45:50
2881379 wellness4lifecenter.com 2 No Rank 2011-09-29 04:45:54
2881380 msx.fi 0 No Rank 2011-09-29 04:45:54
2881381 tforce-tech.com 0 7242082 2011-09-29 04:45:57
2881382 well-case.com 1 No Rank 2011-09-29 04:45:57
2881383 apz.fi 3 18939034 2011-09-29 04:45:57
2881384 wejustlaunched.com 0 732038 2011-09-29 04:45:59
2881385 weather.news.diskonheboh.com 0 1040093 2011-09-29 04:46:00
2881386 weightedhoop.com 0 No Rank 2011-09-29 04:46:01
2881387 h-hc.pl 2 21266612 2011-09-29 04:46:01
2881388 wedrepco.com 2 No Rank 2011-09-29 04:46:07
2881389 sok.com 1 779792 2011-09-29 04:46:10
2881390 quit.ie 4 1862939 2011-09-29 04:46:13
2881391 weekendgetawaypackages.net 0 14274715 2011-09-29 04:46:13
2881392 thearthouse.ca 0 No Rank 2011-09-29 04:46:19
2881393 wedcanada.com 0 No Rank 2011-09-29 04:46:21
2881394 7-up.us 0 143298 2011-09-29 04:46:23
2881395 weboverture.com 2 4665671 2011-09-29 04:46:27
2881396 kkdi.is 5 No Rank 2011-09-29 04:46:30
2881397 az9.org 0 No Rank 2011-09-29 04:46:33
2881398 sin.org 3 22070081 2011-09-29 04:46:35
2881399 webdesignconnect.com 0 No Rank 2011-09-29 04:46:38
2881400 maps.glassofmilkcakecompany.com 0 8325365 2011-09-29 04:46:40
2881401 dragonfireworks.diskonheboh.com 0 1040093 2011-09-29 04:46:40
2881402 webcamoff.com 3 2558615 2011-09-29 04:46:43
2881403 weddingcenterpiecesetc.com 0 No Rank 2011-09-29 04:46:43
2881404 thebeautifulgirls.com 4 2424986 2011-09-29 04:46:43
2881405 k9rx.com 3 6814597 2011-09-29 04:46:45
2881406 article.diskonheboh.com 0 1040093 2011-09-29 04:46:45
2881407 webcammiami.com 0 No Rank 2011-09-29 04:46:47
2881408 cocanal.com 0 No Rank 2011-09-29 04:46:47
2881409 webamusementpark.com 0 No Rank 2011-09-29 04:46:47
2881410 actor.diskonheboh.com 0 1040093 2011-09-29 04:46:53
2881411 web-er.com 0 No Rank 2011-09-29 04:46:54
2881412 go2.glassofmilkcakecompany.com 0 8325365 2011-09-29 04:46:55
2881413 ktile.jp 0 No Rank 2011-09-29 04:46:57
2881414 web-electric.com 0 23006690 2011-09-29 04:46:57
2881415 bfedu.cn 4 7324482 2011-09-29 04:46:59
2881416 wdcusick.com 3 1778365 2011-09-29 04:47:01
2881417 66md.com 0 No Rank 2011-09-29 04:47:02
2881418 weareenfantterrible.com 4 4547094 2011-09-29 04:47:03
2881419 www4.gastroenterologyliverandnutritionpdiatrics.wordpress.com 0 No Rank 2011-09-29 04:47:04
2881420 theconcerthall.net 0 9473511 2011-09-29 04:47:04
2881421 lg6a.com 2 101199 2011-09-29 04:47:08
2881422 wcbi-fmi.org 1 17760259 2011-09-29 04:47:10
2881423 wbavionics.com 1 No Rank 2011-09-29 04:47:15
2881424 zhdb.com 3 3397096 2011-09-29 04:47:15
2881425 gkme.com 2 12484906 2011-09-29 04:47:16
2881426 wb4fay.com 3 13673216 2011-09-29 04:47:19
2881427 wzkzy.cn 6 No Rank 2011-09-29 04:47:24
2881428 lanny.cn 3 1813525 2011-09-29 04:47:27
2881429 orr1.com 0 No Rank 2011-09-29 04:47:27
2881430 mattchrabot.com 3 10171271 2011-09-29 04:47:29
2881431 2304.org 2 No Rank 2011-09-29 04:47:31
2881432 mackenziesbeef.info 0 No Rank 2011-09-29 04:47:33
2881433 megamayka9588rd.chat.ru 0 24281 2011-09-29 04:47:33
2881434 xiok.com 4 2223995 2011-09-29 04:47:34
2881435 aquary.jp 2 No Rank 2011-09-29 04:47:39
2881436 bdbbq.com 1 No Rank 2011-09-29 04:47:47
2881437 balitourpackage.com 0 26935397 2011-09-29 04:47:47
2881438 dollbedquilts.com 1 No Rank 2011-09-29 04:47:47
2881439 altmu.com 0 No Rank 2011-09-29 04:47:51
2881440 waystogetskinnyfast.com 0 No Rank 2011-09-29 04:47:53
2881441 galoppourlavie.forumactif.net 3 7385 2011-09-29 04:47:57
2881442 fitnessem.com 2 3835759 2011-09-29 04:48:09
2881443 condn.com 0 14729612 2011-09-29 04:48:10
2881444 bestspasinmontreal.ca 3 No Rank 2011-09-29 04:48:13
2881445 maps.diskonheboh.com 0 1040093 2011-09-29 04:48:18
2881446 teamsuccar.com 0 No Rank 2011-09-29 04:48:18
2881447 few.ne.jp 2 3189916 2011-09-29 04:48:18
2881448 s.xso.com 4 16865 2011-09-29 04:48:26
2881449 laurencelope511.xanga.com 0 2752 2011-09-29 04:48:27
2881450 hstqd.com 0 13491908 2011-09-29 04:48:28
2881451 waynesbooks.net 3 15001076 2011-09-29 04:48:29
2881452 go2.diskonheboh.com 0 1040093 2011-09-29 04:48:33
2881453 wayneflower.com 2 No Rank 2011-09-29 04:48:34
2881454 reversal.no 0 No Rank 2011-09-29 04:48:34
2881455 orangeblossomperfume.com 1 No Rank 2011-09-29 04:48:36
2881456 wavycat.net 2 No Rank 2011-09-29 04:48:38
2881457 arubu.com 3 No Rank 2011-09-29 04:48:39
2881458 wavemediacambodia.com 2 8762861 2011-09-29 04:48:44
2881459 standingseamclips.com 0 No Rank 2011-09-29 04:48:47
2881460 waterwalk.net 2 No Rank 2011-09-29 04:48:53
2881461 gawds.com 0 No Rank 2011-09-29 04:48:54
2881462 computerrecycling-nyc.com 0 No Rank 2011-09-29 04:48:57
2881463 watersrv.com 2 18472264 2011-09-29 04:49:00
2881464 drwear.pl 1 No Rank 2011-09-29 04:49:00
2881465 reirei.com 0 23404439 2011-09-29 04:49:00
2881466 selby.com 1 15771325 2011-09-29 04:49:02
2881467 waterloocca.com 2 No Rank 2011-09-29 04:49:04
2881468 cobse.org 2 13605259 2011-09-29 04:49:07
2881469 waterfilterswholehouse.org 0 No Rank 2011-09-29 04:49:08
2881470 jillquinnbabcock.com 1 No Rank 2011-09-29 04:49:08
2881471 wbifunds.com 2 No Rank 2011-09-29 04:49:10
2881472 sptsb.com 2 6945339 2011-09-29 04:49:10
2881473 watercolorclub.com 2 14794357 2011-09-29 04:49:13
2881474 watconwv.com 1 No Rank 2011-09-29 04:49:18
2881475 cvijet.hr 4 4263635 2011-09-29 04:49:18
2881476 photos.oasiswaterworks.com 0 28182852 2011-09-29 04:49:19
2881477 app.02.fi 6 No Rank 2011-09-29 04:49:20
2881478 watchfinder.us 0 No Rank 2011-09-29 04:49:23
2881479 watchdogproductiongroup.com 0 No Rank 2011-09-29 04:49:23
2881480 mswiv.com 0 No Rank 2011-09-29 04:49:25
2881481 livingrightfoods.com 1 No Rank 2011-09-29 04:49:26
2881482 wastedge.co.za 0 No Rank 2011-09-29 04:49:27
2881483 warriorwords.net 2 No Rank 2011-09-29 04:49:28
2881484 crmius.org 0 No Rank 2011-09-29 04:49:29
2881485 warnergroupae.com 2 16471613 2011-09-29 04:49:31
2881486 threv.com 1 No Rank 2011-09-29 04:49:32
2881487 angrfc.us 0 No Rank 2011-09-29 04:49:36
2881488 warisanchanteq.com 1 3335884 2011-09-29 04:49:37
2881489 warcraftinfo.fm.interia.pl 2 710 2011-09-29 04:49:37
2881490 a.lqdn.fr 0 8694449 2011-09-29 04:49:38
2881491 wappen-heraldik.com 1 19220902 2011-09-29 04:49:42
2881492 teamd.org 2 No Rank 2011-09-29 04:49:42
2881493 laapam.com 2 12060181 2011-09-29 04:49:44
2881494 wanikewinlodge.com 1 No Rank 2011-09-29 04:49:46
2881495 wanderkarte.org 0 No Rank 2011-09-29 04:49:47
2881496 888vpn.com 2 No Rank 2011-09-29 04:49:49
2881497 wandeabimbola.com 4 7680311 2011-09-29 04:49:52
2881498 afiata.com 0 1139729 2011-09-29 04:49:55
2881499 walkthetalkamerica.com 2 No Rank 2011-09-29 04:49:56
2881500 wallcakes.com 1 18203491 2011-09-29 04:49:56
2881501 served.com 3 1223913 2011-09-29 04:49:57
2881502 walkinwalkin.com 3 3051324 2011-09-29 04:50:08
2881503 chilel.com 4 3480677 2011-09-29 04:50:11
2881504 walkies.nl 0 No Rank 2011-09-29 04:50:12
2881505 walkersontheweb.net 0 23648029 2011-09-29 04:50:16
2881506 waldinrugs.com 2 No Rank 2011-09-29 04:50:17
2881507 blu.net.cn 1 No Rank 2011-09-29 04:50:18
2881508 wakecraft.com 2 10731136 2011-09-29 04:50:19
2881509 pavemaronlocation.co.uk 0 27579226 2011-09-29 04:50:19
2881510 1tribe.org 0 14051961 2011-09-29 04:50:20
2881511 wahaby.com 1 13371538 2011-09-29 04:50:25
2881512 bfcqpm.com 4 15072464 2011-09-29 04:50:26
2881513 waimatenorthlandcare.org.nz 2 No Rank 2011-09-29 04:50:27
2881514 ozimania.com 1 4385522 2011-09-29 04:50:27
2881515 fens.co.jp 0 7517408 2011-09-29 04:50:31
2881516 wadsworthfootandankle.net 0 No Rank 2011-09-29 04:50:31
2881517 fujifilmjz300.com 0 25515570 2011-09-29 04:50:32
2881518 ushanisillustrations.com 1 No Rank 2011-09-29 04:50:34
2881519 kaclne.org 1 No Rank 2011-09-29 04:50:34
2881520 baito.glassofmilkcakecompany.com 0 8325365 2011-09-29 04:50:36
2881521 w-s.se 3 No Rank 2011-09-29 04:50:39
2881522 ilovebenefits.healthcarebenefitsnetwork.com 3 5811014 2011-09-29 04:50:40
2881523 wadkinscarsandtrucks.com 0 No Rank 2011-09-29 04:50:40
2881524 bridgeportroofing.com 0 No Rank 2011-09-29 04:50:40
2881525 laurencelope511.insanejournal.com 0 5024 2011-09-29 04:50:41
2881526 vvrescuemission.org 1 No Rank 2011-09-29 04:50:43
2881527 vvo-mvi.com 0 No Rank 2011-09-29 04:50:44
2881528 bodyrx.com 2 1391477 2011-09-29 04:50:47
2881529 vvdgold.in 1 9161870 2011-09-29 04:50:48
2881530 sukratarpaulinindustries.com 2 No Rank 2011-09-29 04:50:48
2881531 vscu.net 2 No Rank 2011-09-29 04:50:49
2881532 oilibya.com.eg 0 27196602 2011-09-29 04:50:52
2881533 vr-theatre.com 0 No Rank 2011-09-29 04:50:53
2881534 casablancabayarea.com 0 No Rank 2011-09-29 04:50:53
2881535 vrs-uk.net 5 5750171 2011-09-29 04:50:56
2881536 thurapanel.com 0 No Rank 2011-09-29 04:50:57
2881537 voyticky.com 3 No Rank 2011-09-29 04:50:57
2881538 bang24.com 0 No Rank 2011-09-29 04:51:00
2881539 kanaldigital.dk 0 13597594 2011-09-29 04:51:01
2881540 woocai.net 6 14418088 2011-09-29 04:51:01
2881541 voyance-majestic.com 1 12055948 2011-09-29 04:51:02
2881542 getdublinonline.com 0 21100378 2011-09-29 04:51:03
2881543 voyageonsautrement.com 0 24995238 2011-09-29 04:51:04
2881544 votersforedjustus.com 2 No Rank 2011-09-29 04:51:08
2881545 lemkescrew.com 0 No Rank 2011-09-29 04:51:08
2881546 vote4rena.org 1 No Rank 2011-09-29 04:51:08
2881547 billyandbobbiesaviary.com 0 12822399 2011-09-29 04:51:09
2881548 ostvmd.com 0 No Rank 2011-09-29 04:51:13
2881549 delcofireplaces.net 1 23016305 2011-09-29 04:51:13
2881550 von-oldershausen-und-schwarz.com 1 No Rank 2011-09-29 04:51:15
2881551 von-schoenebeck.com 0 No Rank 2011-09-29 04:51:16
2881552 hodnik.com 3 6371240 2011-09-29 04:51:17
2881553 vomarc.org 3 No Rank 2011-09-29 04:51:19
2881554 volvik.dk.web3.redhost.dk 0 268847 2011-09-29 04:51:22
2881555 affecto.no 5 4120698 2011-09-29 04:51:22
2881556 volunteer-on-vacation-hawaii.com 4 8024984 2011-09-29 04:51:25
2881557 armourgeddon.co.uk 3 5255982 2011-09-29 04:51:25
2881558 whichlaserprinter.info 0 No Rank 2011-09-29 04:51:28
2881559 volkermord-guild.com 2 No Rank 2011-09-29 04:51:29
2881560 sweetcandylondon.co.uk 0 No Rank 2011-09-29 04:51:31
2881561 voksenven-aarhus.dk 1 No Rank 2011-09-29 04:51:32
2881562 milwit.org 1 No Rank 2011-09-29 04:51:32
2881563 atlaschiropracticstormlake.com 0 No Rank 2011-09-29 04:51:35
2881564 voicebase.de 3 1858632 2011-09-29 04:51:39
2881565 voiceforempowerment.com 2 7339325 2011-09-29 04:51:40
2881566 affecto.se 4 26306383 2011-09-29 04:51:40
2881567 roboboat.com 0 No Rank 2011-09-29 04:51:48
2881568 affecto.lt 6 4708839 2011-09-29 04:51:48
2881569 vkontaktewar.ru 1 23250642 2011-09-29 04:51:50
2881570 acc.joe.pl 2 140682 2011-09-29 04:51:50
2881571 thepokerhaus.com 0 9269416 2011-09-29 04:51:51
2881572 cytori.com 4 2408073 2011-09-29 04:51:54
2881573 felineresistance.com 3 24052749 2011-09-29 04:51:58
2881574 czglsh.com 1 No Rank 2011-09-29 04:52:00
2881575 dmccvi.org 4 21715331 2011-09-29 04:52:02
2881576 vive-le-sport.fr 4 4393211 2011-09-29 04:52:04
2881577 vivaces.be 3 14798992 2011-09-29 04:52:06
2881578 knoxgoldexchange.com 1 22826327 2011-09-29 04:52:08
2881579 vittoriovideo.com 2 9284907 2011-09-29 04:52:09
2881580 anosales.com 0 20827647 2011-09-29 04:52:10
2881581 theftalk.com 3 181458 2011-09-29 04:52:13
2881582 affecto.dk 5 12676438 2011-09-29 04:52:13
2881583 baito.diskonheboh.com 0 1040093 2011-09-29 04:52:16
2881584 vitahealth.ca 4 8947497 2011-09-29 04:52:16
2881585 powerphotoonline.com 2 23794143 2011-09-29 04:52:20
2881586 vistayoga.com 1 7229771 2011-09-29 04:52:21
2881587 wapedu.com 0 No Rank 2011-09-29 04:52:28
2881588 visscherlumber.com 3 No Rank 2011-09-29 04:52:29
2881589 affecto.fi 5 2645927 2011-09-29 04:52:29
2881590 visitnorthampton.net 4 7750262 2011-09-29 04:52:32
2881591 visitnewberrysc.com 3 6221589 2011-09-29 04:52:34
2881592 caretech.itrademarket.com 0 39978 2011-09-29 04:52:35
2881593 acresoffunchildcare.com 0 No Rank 2011-09-29 04:52:35
2881594 visioptical.com 1 11329967 2011-09-29 04:52:38
2881595 rickpackage.com 0 No Rank 2011-09-29 04:52:39
2881596 thesk.net 1 1232628 2011-09-29 04:52:41
2881597 visatour-sy.com 1 No Rank 2011-09-29 04:52:42
2881598 zpda.gov.cn 4 No Rank 2011-09-29 04:52:42
2881599 mylensspirit.com 1 No Rank 2011-09-29 04:52:43
2881600 blog.glassofmilkcakecompany.com 0 8325365 2011-09-29 04:52:43
2881601 bristan.com 4 849407 2011-09-29 04:52:44
2881602 virtualmarriageretreat.com 0 No Rank 2011-09-29 04:52:45
2881603 virtualdealertraining.com 1 6744905 2011-09-29 04:52:47
2881604 affecto.com 5 2645927 2011-09-29 04:52:52
2881605 rimallc.com 0 23074526 2011-09-29 04:52:52
2881606 lumengineering.com 0 No Rank 2011-09-29 04:52:53
2881607 virginiagoldwrestling.org 1 No Rank 2011-09-29 04:52:54
2881608 wundermarks.com 4 No Rank 2011-09-29 04:52:54
2881609 houseofruthjewels.com 0 No Rank 2011-09-29 04:52:56
2881610 virtualdaytrader.net 2 No Rank 2011-09-29 04:52:57
2881611 virginiabaseballacademy.com 2 No Rank 2011-09-29 04:52:58
2881612 ada-wong.com 0 No Rank 2011-09-29 04:52:58
2881613 crescentpurchasing.com 4 No Rank 2011-09-29 04:52:58
2881614 soap-tec.jp 0 No Rank 2011-09-29 04:53:01
2881615 viralwebviews.com 0 1732529 2011-09-29 04:53:03
2881616 dappi.tk 0 No Rank 2011-09-29 04:53:03
2881617 comdens.com 3 21265874 2011-09-29 04:53:03
2881618 2012lexus-revealed.info 0 No Rank 2011-09-29 04:53:04
2881619 vipprague.com 3 No Rank 2011-09-29 04:53:05
2881620 sitesafetyplans.net.au 0 No Rank 2011-09-29 04:53:08
2881621 vip98ktv.com 1 9598224 2011-09-29 04:53:11
2881622 vip14.net 0 1897528 2011-09-29 04:53:13
2881623 vipjatt.net 2 3872198 2011-09-29 04:53:14
2881624 vintagevanhalen.com 0 No Rank 2011-09-29 04:53:14
2881625 astology.jp 2 No Rank 2011-09-29 04:53:15
2881626 cleaningservicebrisbane.net.au 0 No Rank 2011-09-29 04:53:18
2881627 vine4design.com 2 23944399 2011-09-29 04:53:20
2881628 villatuttorotto.com 3 12447434 2011-09-29 04:53:21
2881629 videobokep.wapglee.com 0 406075 2011-09-29 04:53:22
2881630 britcore.de 1 No Rank 2011-09-29 04:53:24
2881631 villamaroudi.com 0 No Rank 2011-09-29 04:53:25
2881632 thinkb4upost.net 0 No Rank 2011-09-29 04:53:29
2881633 villageatstocktonharbor.com 0 6238926 2011-09-29 04:53:30
2881634 village8.com 4 1810001 2011-09-29 04:53:30
2881635 khazain.net 0 No Rank 2011-09-29 04:53:33
2881636 viktorkiss.net 0 No Rank 2011-09-29 04:53:35
2881637 vikingcarver.com 2 No Rank 2011-09-29 04:53:38
2881638 djranonline.forummotion.com 0 15900 2011-09-29 04:53:38
2881639 doda.joe.pl 0 140682 2011-09-29 04:53:40
2881640 viishnuvardhan.com 0 No Rank 2011-09-29 04:53:42
2881641 vigrxplusreviews.info 0 No Rank 2011-09-29 04:53:43
2881642 www2.glassofmilkcakecompany.com 0 8325365 2011-09-29 04:53:45
2881643 delovaja.lv 4 5183278 2011-09-29 04:53:48
2881644 viejoaradodeabasto.com.ar 2 No Rank 2011-09-29 04:53:49
2881645 videotrtube.com 0 1284045 2011-09-29 04:53:54
2881646 vidiotsannex.com 4 10148046 2011-09-29 04:53:55
2881647 videosbosteros.com 0 No Rank 2011-09-29 04:54:03
2881648 bssystem.eu 3 No Rank 2011-09-29 04:54:03
2881649 creaman.com 4 2572096 2011-09-29 04:54:03
2881650 videoslub.com 1 15116718 2011-09-29 04:54:05
2881651 videoresources.com 4 8117456 2011-09-29 04:54:08
2881652 pnpaaai.org 2 8663744 2011-09-29 04:54:09
2881653 oldspice.ca 4 2915771 2011-09-29 04:54:13
2881654 videodocumentation.com 0 No Rank 2011-09-29 04:54:15
2881655 pressurecleaningbrisbane.net.au 0 No Rank 2011-09-29 04:54:16
2881656 klue.com.my 5 361395 2011-09-29 04:54:18
2881657 videoplata.ru 2 346389 2011-09-29 04:54:21
2881658 blog.diskonheboh.com 0 1040093 2011-09-29 04:54:23
2881659 victorymotorcycles.se 4 15012549 2011-09-29 04:54:27
2881660 victoriamanagement.com 0 No Rank 2011-09-29 04:54:27
2881661 vicbb.com 3 No Rank 2011-09-29 04:54:32
2881662 victorialarvie.net 2 19478286 2011-09-29 04:54:32
2881663 sinonet.org 4 56835 2011-09-29 04:54:33
2881664 komancy.com 0 26378310 2011-09-29 04:54:34
2881665 vfwgolf.org 1 No Rank 2011-09-29 04:54:38
2881666 vwr-inc.com 5 8132439 2011-09-29 04:54:42
2881667 a-pinto.com 2 22054605 2011-09-29 04:54:43
2881668 vfstroy.ru 1 No Rank 2011-09-29 04:54:48
2881669 aial.org.au 4 No Rank 2011-09-29 04:54:48
2881670 bba-info.de 2 13054910 2011-09-29 04:54:51
2881671 thrilltown.com 2 12366798 2011-09-29 04:54:51
2881672 vfcommodore.com 2 No Rank 2011-09-29 04:54:53
2881673 3911111.com 3 1083060 2011-09-29 04:54:57
2881674 moniieerhowkdii.livejournal.com 0 87 2011-09-29 04:54:59
2881675 vetlugascoutbase.ru 2 No Rank 2011-09-29 04:55:00
2881676 darnellreid410792.webs.com 0 No Rank 2011-09-29 04:55:01
2881677 werberat.de 5 4658028 2011-09-29 04:55:02
2881678 am-shop.net 0 No Rank 2011-09-29 04:55:03
2881679 veteransltc.com 0 No Rank 2011-09-29 04:55:06
2881680 vibrationplates.co.za 1 20886372 2011-09-29 04:55:09
2881681 verticalexpeditionsllc.com 2 No Rank 2011-09-29 04:55:10
2881682 cleaninginbrisbane.net.au 0 No Rank 2011-09-29 04:55:13
2881683 verstijnen.com 0 No Rank 2011-09-29 04:55:13
2881684 versichern-online.at 3 No Rank 2011-09-29 04:55:15
2881685 etkinliq.net 0 No Rank 2011-09-29 04:55:17
2881686 versatilityinc.com 1 No Rank 2011-09-29 04:55:19
2881687 025house.net 0 27170613 2011-09-29 04:55:20
2881688 spb.glassofmilkcakecompany.com 0 8325365 2011-09-29 04:55:24
2881689 apps.jwu.edu 0 132271 2011-09-29 04:55:25
2881690 verba-strani-jezici.hr 4 11953241 2011-09-29 04:55:26
2881691 verascleansweep.com 0 No Rank 2011-09-29 04:55:27
2881692 venturesec.com 0 25146995 2011-09-29 04:55:30
2881693 desinsect.ru 2 No Rank 2011-09-29 04:55:31
2881694 timelincoln.appspot.com 0 534 2011-09-29 04:55:32
2881695 veraprimavera.ru 1 No Rank 2011-09-29 04:55:34
2881696 ashsound.com 0 22672804 2011-09-29 04:55:35
2881697 venturacounty-graphics.com 0 No Rank 2011-09-29 04:55:36
2881698 hshgroup.com 6 1292758 2011-09-29 04:55:38
2881699 vendettaclothing.com 0 No Rank 2011-09-29 04:55:40
2881700 www2.diskonheboh.com 0 1040093 2011-09-29 04:55:40
2881701 vensent.com 4 5007231 2011-09-29 04:55:40
2881702 vejasvanduo.puslapiai.lt 3 97898 2011-09-29 04:55:45
2881703 news.uppsen.com 0 14235498 2011-09-29 04:55:47
2881704 homegymsreviewed.com 0 No Rank 2011-09-29 04:55:51
2881705 vegasviphottiehosting.com 3 1885422 2011-09-29 04:55:51
2881706 veilingdeurwaarder.net 0 No Rank 2011-09-29 04:55:52
2881707 kansas4h.org 6 2835633 2011-09-29 04:55:56
2881708 vegasvalleypainting.com 0 21594465 2011-09-29 04:55:56
2881709 veg-indian-recipes.com 0 7932317 2011-09-29 04:55:57
2881710 fitnesse.org 5 557142 2011-09-29 04:55:59
2881711 vdocenter.com 0 No Rank 2011-09-29 04:56:01
2881712 vectorenterprises.com 0 10436213 2011-09-29 04:56:01
2881713 werberat.org 5 No Rank 2011-09-29 04:56:01
2881714 cleanerbrisbane.net.au 0 No Rank 2011-09-29 04:56:08
2881715 avi2divx.com 4 2496844 2011-09-29 04:56:08
2881716 vcpsa.com 1 No Rank 2011-09-29 04:56:08
2881717 2pd-omer.com 0 6389416 2011-09-29 04:56:11
2881718 vccda.org 4 22848185 2011-09-29 04:56:11
2881719 vasnat.com 1 4932629 2011-09-29 04:56:16
2881720 arguspri.com 0 No Rank 2011-09-29 04:56:17
2881721 vasimusic.com 0 No Rank 2011-09-29 04:56:19
2881722 vascuflo.com 2 13985494 2011-09-29 04:56:20
2881723 britcore.net 2 10180241 2011-09-29 04:56:24
2881724 detmetal.com 0 No Rank 2011-09-29 04:56:26
2881725 article.gastroenterologyliverandnutritionpdiatrics.wordpress.com 0 No Rank 2011-09-29 04:56:26
2881726 varrovilag.hu 3 2497358 2011-09-29 04:56:26
2881727 cat5kabel.de 3 No Rank 2011-09-29 04:56:29
2881728 varikool.com 1 No Rank 2011-09-29 04:56:30
2881729 corebite.com 0 No Rank 2011-09-29 04:56:30
2881730 varanasiinfo.com 0 No Rank 2011-09-29 04:56:31
2881731 vanilladesignstore.com 3 9085336 2011-09-29 04:56:35
2881732 vapourettes.com 3 5299140 2011-09-29 04:56:35
2881733 black-princess.weebly.com 1 15191302 2011-09-29 04:56:37
2881734 kr.yeshj.com 4 5334 2011-09-29 04:56:39
2881735 vanguardassociates.net 0 17906618 2011-09-29 04:56:39
2881736 vanessaguedj.com 0 7947676 2011-09-29 04:56:40
2881737 black2com.blogspot.com 4 6972749 2011-09-29 04:56:42
2881738 group.glassofmilkcakecompany.com 0 8325365 2011-09-29 04:56:43
2881739 biggfile.com 0 No Rank 2011-09-29 04:56:44
2881740 vamosalevento.com 1 3068248 2011-09-29 04:56:46
2881741 vancouverslist.ca 0 No Rank 2011-09-29 04:56:46
2881742 blackaircraft.com 3 19709877 2011-09-29 04:56:48
2881743 valnet-staff.org 0 No Rank 2011-09-29 04:56:50
2881744 carafate.org 0 No Rank 2011-09-29 04:56:52
2881745 thescottsdaledentist.com 0 4236714 2011-09-29 04:56:53
2881746 vallianpaint.com 0 No Rank 2011-09-29 04:56:54
2881747 a4.yeshj.com 0 5334 2011-09-29 04:56:55
2881748 valleymotorssubaru.com 0 23317847 2011-09-29 04:56:58
2881749 haberbiz.org 0 3425900 2011-09-29 04:56:58
2881750 valleywatch.net 4 No Rank 2011-09-29 04:56:59
2881751 cleaningcontractsbrisbane.com.au 0 No Rank 2011-09-29 04:57:00
2881752 valleymagician.com 1 No Rank 2011-09-29 04:57:02
2881753 valeretattoo.com 1 No Rank 2011-09-29 04:57:03
2881754 daten.ivw.eu 4 136558 2011-09-29 04:57:06
2881755 tronggia.com 0 26452431 2011-09-29 04:57:06
2881756 tmmblog.de 1 8582141 2011-09-29 04:57:06
2881757 takarakuji.glassofmilkcakecompany.com 0 8325365 2011-09-29 04:57:08
2881758 valenciacoachworks.com 0 No Rank 2011-09-29 04:57:08
2881759 valdot.com 2 4490552 2011-09-29 04:57:08
2881760 darnellreid410.xanga.com 0 2752 2011-09-29 04:57:10
2881761 braintube.tv 0 No Rank 2011-09-29 04:57:12
2881762 spb.diskonheboh.com 0 1040093 2011-09-29 04:57:20
2881763 valasske-mezirici.info 2 No Rank 2011-09-29 04:57:21
2881764 funaki-oc.jp 3 No Rank 2011-09-29 04:57:21
2881765 felocity.com 3 No Rank 2011-09-29 04:57:23
2881766 newhardwaresoftware.blogspot.com 0 No Rank 2011-09-29 04:57:26
2881767 vakantiehuizen-noorwegen.novasol.nl 3 656998 2011-09-29 04:57:26
2881768 vz2.blur.com 0 390567 2011-09-29 04:57:27
2881769 vajrabiometrix.com 3 13835211 2011-09-29 04:57:29
2881770 anv-chem.com 0 No Rank 2011-09-29 04:57:33
2881771 vague-net.jp 2 5166884 2011-09-29 04:57:37
2881772 laan-tec.com 4 1079841 2011-09-29 04:57:38
2881773 forum.joe.pl 3 140682 2011-09-29 04:57:41
2881774 vacuum-cleaner-advisor.com 3 368702 2011-09-29 04:57:41
2881775 vactruckman.com 0 No Rank 2011-09-29 04:57:44
2881776 wholesalekidsclothes.info 0 No Rank 2011-09-29 04:57:45
2881777 vaccarellacorgis.com 1 No Rank 2011-09-29 04:57:49
2881778 aspxinfo.com 0 No Rank 2011-09-29 04:57:50
2881779 vacau.com 1 32716 2011-09-29 04:57:52
2881780 whowhere.glassofmilkcakecompany.com 0 8325365 2011-09-29 04:57:53
2881781 felocity.org 4 6222787 2011-09-29 04:57:55
2881782 vacations-exotica.com 4 No Rank 2011-09-29 04:57:56
2881783 vz3.blur.com 5 390567 2011-09-29 04:57:59
2881784 toasteggme.com 3 320732 2011-09-29 04:58:00
2881785 vabode.com 2 No Rank 2011-09-29 04:58:01
2881786 vakta.se 0 No Rank 2011-09-29 04:58:06
2881787 extremis.com 3 10211461 2011-09-29 04:58:06
2881788 cuceritor.ro 3 12973295 2011-09-29 04:58:11
2881789 thug-life.pl 2 9683827 2011-09-29 04:58:13
2881790 uvmhillel.org 4 9236862 2011-09-29 04:58:13
2881791 notgeniuses.com 5 9272424 2011-09-29 04:58:15
2881792 de.hodito.hu 3 133042 2011-09-29 04:58:17
2881793 utilitycostreductions.com 0 No Rank 2011-09-29 04:58:18
2881794 velarium.com 3 No Rank 2011-09-29 04:58:21
2881795 utahcollegiatedeca.org 2 5520142 2011-09-29 04:58:23
2881796 ussernestgsmall.org 3 No Rank 2011-09-29 04:58:24
2881797 usptk.ru 3 8565467 2011-09-29 04:58:28
2881798 group.diskonheboh.com 0 1040093 2011-09-29 04:58:30
2881799 usmilenow.com 2 5283154 2011-09-29 04:58:31
2881800 mybullion.de 2 1942269 2011-09-29 04:58:32
2881801 ro.hodito.hu 3 133042 2011-09-29 04:58:33
2881802 usefulsite.jp 3 No Rank 2011-09-29 04:58:34
2881803 usefulandused.com 0 No Rank 2011-09-29 04:58:39
2881804 dadushin.com 2 2160791 2011-09-29 04:58:39
2881805 usedcarprovidence.com 1 No Rank 2011-09-29 04:58:41
2881806 usaveautoglass.com 1 No Rank 2011-09-29 04:58:42
2881807 wwe.86ty.com 0 513705 2011-09-29 04:58:45
2881808 usautoappraisers.com 0 No Rank 2011-09-29 04:58:45
2881809 takarakuji.diskonheboh.com 0 1040093 2011-09-29 04:58:48
2881810 usasavingsmagazine.com 0 No Rank 2011-09-29 04:58:52
2881811 napsipag.org 5 14737645 2011-09-29 04:58:53
2881812 usasocialmedia.com 1 12278565 2011-09-29 04:58:55
2881813 srbijanet.rs 5 70558 2011-09-29 04:58:59
2881814 usainflatablerepair.com 0 No Rank 2011-09-29 04:59:03
2881815 usagermanyscholarship.org 6 7743069 2011-09-29 04:59:03
2881816 tmg-media.de 5 26114487 2011-09-29 04:59:03
2881817 sourou110.com 1 No Rank 2011-09-29 04:59:04
2881818 usa1streetrods.com 0 14195703 2011-09-29 04:59:08
2881819 usa.uniinternational.tel 0 14967975 2011-09-29 04:59:12
2881820 stopacta.info 6 6819091 2011-09-29 04:59:12
2881821 us-cigarettes.net 0 No Rank 2011-09-29 04:59:14
2881822 urieltrucking.com 0 No Rank 2011-09-29 04:59:15
2881823 pda.soccer.ru 3 6379 2011-09-29 04:59:16
2881824 urbanxsjeans.com 0 19764034 2011-09-29 04:59:18
2881825 urbanworldgoju.org 1 No Rank 2011-09-29 04:59:20
2881826 paulayounghairfashions.tophonors.com 0 910199 2011-09-29 04:59:21
2881827 urbanworld.nu 3 4260241 2011-09-29 04:59:24
2881828 darnellreid410.insanejournal.com 0 5024 2011-09-29 04:59:24
2881829 urbanlegendbasketball.com 0 No Rank 2011-09-29 04:59:26
2881830 home.glassofmilkcakecompany.com 0 8325365 2011-09-29 04:59:31
2881831 ru.starnet.md 4 323518 2011-09-29 04:59:32
2881832 urax.ru 2 1345115 2011-09-29 04:59:34
2881833 yufuin-hp.com 4 No Rank 2011-09-29 04:59:37
2881834 uraltourism.ru 4 1626913 2011-09-29 04:59:38
2881835 animes247.com 0 446211 2011-09-29 04:59:38
2881836 mightylib.glassofmilkcakecompany.com 0 8325365 2011-09-29 04:59:38
2881837 whowhere.diskonheboh.com 0 1040093 2011-09-29 04:59:40
2881838 campus.pc.edu 0 1827320 2011-09-29 04:59:43
2881839 asrilanka.com 0 1667572 2011-09-29 04:59:43
2881840 uptownbridalandflorist.com 1 No Rank 2011-09-29 04:59:45
2881841 tengzang.com 0 606366 2011-09-29 04:59:50
2881842 homeremediesforhemorrhoids88.blog.com 0 1085 2011-09-29 04:59:52
2881843 uptoparcovers.com 0 No Rank 2011-09-29 04:59:53
2881844 trockadero.jp 4 No Rank 2011-09-29 04:59:53
2881845 johannesburg.glassofmilkcakecompany.com 0 8325365 2011-09-29 04:59:55
2881846 upington.biz 2 7626765 2011-09-29 04:59:57
2881847 mybullion.net 2 3818536 2011-09-29 04:59:58
2881848 avi-codec.net 0 No Rank 2011-09-29 04:59:59
2881849 upcoderecords.com 2 No Rank 2011-09-29 05:00:01
2881850 universalvehicleservices.com 0 No Rank 2011-09-29 05:00:08
2881851 langworld.com 3 23503893 2011-09-29 05:00:08
2881852 winterscg.com 0 No Rank 2011-09-29 05:00:10
2881853 up-field21.com 2 No Rank 2011-09-29 05:00:10
2881854 universalsearchlight.com 1 No Rank 2011-09-29 05:00:13
2881855 unitedresourcessolutions.org 0 No Rank 2011-09-29 05:00:14
2881856 ra-tramitz.de 2 No Rank 2011-09-29 05:00:15
2881857 cellenrich.eu 3 No Rank 2011-09-29 05:00:17
2881858 books.kpl.org 3 527055 2011-09-29 05:00:19
2881859 unitedlivehost.net 0 No Rank 2011-09-29 05:00:20
2881860 uniquefoods.com 0 877 2011-09-29 05:00:20
2881861 unionbeach.net 5 4925435 2011-09-29 05:00:24
2881862 unicongress.org 0 8479428 2011-09-29 05:00:24
2881863 carnegieam.dk 3 No Rank 2011-09-29 05:00:25
2881864 chaplin.co.il 2 28572918 2011-09-29 05:00:28
2881865 johannesburg.veloavto.site.ge 0 4125875 2011-09-29 05:00:29
2881866 unfire-shop.ru 3 2749825 2011-09-29 05:00:32
2881867 aircharge.com 5 1649917 2011-09-29 05:00:32
2881868 mirea-mm21.jp 4 6275560 2011-09-29 05:00:33
2881869 carnegieam.de 3 No Rank 2011-09-29 05:00:36
2881870 unclejoeskitchen.com 0 No Rank 2011-09-29 05:00:36
2881871 unblocksite.us 0 1393412 2011-09-29 05:00:41
2881872 umusa.net 3 No Rank 2011-09-29 05:00:42
2881873 m.kidzania.jp 2 106208 2011-09-29 05:00:43
2881874 abestvalueinbraintreema.com 0 5624945 2011-09-29 05:00:44
2881875 sonyphotodigitalcamera.blogspot.com 0 27038786 2011-09-29 05:00:44
2881876 umora.biz 3 2041828 2011-09-29 05:00:47
2881877 za-ullrich.de 0 No Rank 2011-09-29 05:00:49
2881878 umbab.se 0 No Rank 2011-09-29 05:00:51
2881879 umbugjug.com 3 771869 2011-09-29 05:00:52
2881880 sprzet-agd.pl 2 17675782 2011-09-29 05:00:53
2881881 umaskarate.com 1 No Rank 2011-09-29 05:00:53
2881882 carnegieam.no 3 No Rank 2011-09-29 05:00:59
2881883 um-ag.ch 3 No Rank 2011-09-29 05:01:00
2881884 ultrasonic-motor.com 3 23462441 2011-09-29 05:01:02
2881885 dayi-archi.myweb.glassofmilkcakecompany.com 0 8325365 2011-09-29 05:01:04
2881886 ultralifeproducts.com 0 No Rank 2011-09-29 05:01:06
2881887 tangoclasseslondon.co.uk 0 No Rank 2011-09-29 05:01:08
2881888 chuobosai.com 1 9000617 2011-09-29 05:01:10
2881889 amaorissa.com 0 20323018 2011-09-29 05:01:11
2881890 ultragroplantfood.com 2 No Rank 2011-09-29 05:01:16
2881891 bordtennis.is 5 No Rank 2011-09-29 05:01:16
2881892 home.diskonheboh.com 0 1040093 2011-09-29 05:01:17
2881893 ultimateinternettoolbox.com 0 No Rank 2011-09-29 05:01:18
2881894 casino-it.org 1 28789082 2011-09-29 05:01:24
2881895 dfz.jl.gov.cn 6 84809 2011-09-29 05:01:24
2881896 mightylib.diskonheboh.com 0 1040093 2011-09-29 05:01:25
2881897 venaprowheretobuy35.blog.com 0 1085 2011-09-29 05:01:25
2881898 blob.ziggo.nl 0 18744 2011-09-29 05:01:30
2881899 almoqayad.com 0 4712905 2011-09-29 05:01:34
2881900 www4.glassofmilkcakecompany.com 0 8325365 2011-09-29 05:01:41
2881901 ulstercountyauction.com 2 No Rank 2011-09-29 05:01:42
2881902 ulfbr.ru 2 10327270 2011-09-29 05:01:45
2881903 carnegieam.se 2 No Rank 2011-09-29 05:01:45
2881904 johannesburg.diskonheboh.com 0 1040093 2011-09-29 05:01:48
2881905 drdarvish.com 3 9446274 2011-09-29 05:01:48
2881906 jaralqamr.net 0 2170376 2011-09-29 05:01:50
2881907 ukladodpornosciowy.pl 0 No Rank 2011-09-29 05:01:51
2881908 ukfwcrtc.com 0 22426738 2011-09-29 05:01:53
2881909 arcadekey.com 0 802255 2011-09-29 05:01:55
2881910 ufdk.se 1 No Rank 2011-09-29 05:01:58
2881911 uik.hr 4 8894079 2011-09-29 05:02:00
2881912 losangelespsychiatrist.com 1 2778748 2011-09-29 05:02:02
2881913 it-bukvoed.ru 1 930269 2011-09-29 05:02:02
2881914 ueistor.com 0 No Rank 2011-09-29 05:02:03
2881915 udruga-proljece.hr 1 No Rank 2011-09-29 05:02:05
2881916 gatsbysoft.com 2 No Rank 2011-09-29 05:02:09
2881917 udanyurlop.net 0 No Rank 2011-09-29 05:02:12
2881918 alexlights.com 0 No Rank 2011-09-29 05:02:14
2881919 ucmornant.free.fr 1 207 2011-09-29 05:02:15
2881920 proscar5mg.net 2 No Rank 2011-09-29 05:02:18
2881921 hellocoton.com 2 2409722 2011-09-29 05:02:18
2881922 uchetenergo.ru 0 No Rank 2011-09-29 05:02:21
2881923 ucitsfunds.eu 1 No Rank 2011-09-29 05:02:21
2881924 bel-limburg.nl 4 No Rank 2011-09-29 05:02:22
2881925 uangbicara.com 0 No Rank 2011-09-29 05:02:24
2881926 uafirm.org 1 8638087 2011-09-29 05:02:28
2881927 fifaultimateteam.net 0 No Rank 2011-09-29 05:02:28
2881928 tyquest.ca 0 No Rank 2011-09-29 05:02:31
2881929 tyquadeauctions.com 1 No Rank 2011-09-29 05:02:33
2881930 tylermadison.com 3 10146415 2011-09-29 05:02:34
2881931 dayi-archi.myweb.uppsen.com 0 14235498 2011-09-29 05:02:34
2881932 toddmelnik.com 0 No Rank 2011-09-29 05:02:35
2881933 twofacesdesign.com 1 No Rank 2011-09-29 05:02:39
2881934 bb-akademie.de 2 No Rank 2011-09-29 05:02:40
2881935 dir.glassofmilkcakecompany.com 0 8325365 2011-09-29 05:02:41
2881936 twobooswhoeat.com 3 2464400 2011-09-29 05:02:42
2881937 vietguitar.org 2 695531 2011-09-29 05:02:42
2881938 tvfortherestofus.com 2 12796198 2011-09-29 05:02:53
2881939 guadec.klid.dk 4 2118752 2011-09-29 05:02:53
2881940 dayi-archi.myweb.diskonheboh.com 0 1040093 2011-09-29 05:02:55
2881941 livecoupon.com 0 27652119 2011-09-29 05:02:58
2881942 tuxedochurch.com 2 No Rank 2011-09-29 05:02:59
2881943 jaxsncorp.com 1 957039 2011-09-29 05:03:04
2881944 tuttdaggs.com 3 No Rank 2011-09-29 05:03:06
2881945 e-midas.com.cn 4 9086108 2011-09-29 05:03:08
2881946 home-world.net 2 4001500 2011-09-29 05:03:11
2881947 tuscaloosahotels.net 0 No Rank 2011-09-29 05:03:11
2881948 akohenergyservices.com 0 No Rank 2011-09-29 05:03:14
2881949 turnthepowerup.com 1 22847197 2011-09-29 05:03:15
2881950 turnerlicensing.com 4 2360477 2011-09-29 05:03:21
2881951 tuinnatuurlijk.nl 3 No Rank 2011-09-29 05:03:26
2881952 heavenarts.com 1 11055555 2011-09-29 05:03:29
2881953 ecams.agts.edu 5 3058778 2011-09-29 05:03:30
2881954 tuckreader.com 4 2646039 2011-09-29 05:03:34
2881955 www4.diskonheboh.com 0 1040093 2011-09-29 05:03:38
2881956 tthflorist.com 2 16786747 2011-09-29 05:03:40
2881957 live.soccer.ru 2 6379 2011-09-29 05:03:40
2881958 kiwicare.co.uk 3 5307014 2011-09-29 05:03:45
2881959 tt-lsg67ostrau.de.vu 0 No Rank 2011-09-29 05:03:46
2881960 marcelinosol716684.webs.com 0 No Rank 2011-09-29 05:03:50
2881961 tsanazis.com 0 No Rank 2011-09-29 05:03:52
2881962 trylonhotel.com 2 1811574 2011-09-29 05:03:55
2881963 wwws.givex.com 5 166990 2011-09-29 05:03:57
2881964 twincitiesmoldremoval.com 0 No Rank 2011-09-29 05:03:57
2881965 music.glassofmilkcakecompany.com 0 8325365 2011-09-29 05:03:59
2881966 vintegrate.com 1 No Rank 2011-09-29 05:04:02
2881967 trv.net.tc 0 28392052 2011-09-29 05:04:07
2881968 tryba.tel 2 No Rank 2011-09-29 05:04:07
2881969 lets-not.co.nz 3 No Rank 2011-09-29 05:04:10
2881970 truthstalker.net 0 No Rank 2011-09-29 05:04:12
2881971 truwell.net 4 10688156 2011-09-29 05:04:13
2881972 trustwiz.fastmail.fm 0 5011 2011-09-29 05:04:16
2881973 urbanfusiononline.org 1 18388402 2011-09-29 05:04:16
2881974 uexternado.net 6 No Rank 2011-09-29 05:04:17
2881975 truro-stockbrokers.com 0 No Rank 2011-09-29 05:04:18
2881976 picturehanging.co.uk 3 8340097 2011-09-29 05:04:18
2881977 traviantractor.com 0 5945647 2011-09-29 05:04:23
2881978 truexinc.com 1 No Rank 2011-09-29 05:04:26
2881979 max.glassofmilkcakecompany.com 0 8325365 2011-09-29 05:04:29
2881980 truesportltd.com 3 No Rank 2011-09-29 05:04:32
2881981 stewartrobson.com 2 8017860 2011-09-29 05:04:36
2881982 truhiking.com 2 No Rank 2011-09-29 05:04:39
2881983 truckstuff.com 4 No Rank 2011-09-29 05:04:41
2881984 dir.diskonheboh.com 0 1040093 2011-09-29 05:04:43
2881985 homepager.tripod.glassofmilkcakecompany.com 0 8325365 2011-09-29 05:04:45
2881986 makemydeal.com 0 12085788 2011-09-29 05:04:48
2881987 truckerfreunde.de 3 5292298 2011-09-29 05:04:48
2881988 sududa.co 0 No Rank 2011-09-29 05:04:49
2881989 tromix.pl 1 No Rank 2011-09-29 05:04:52
2881990 nadachke.ru 0 No Rank 2011-09-29 05:04:53
2881991 troa.info 1 No Rank 2011-09-29 05:04:55
2881992 bigtimebbq.com 0 No Rank 2011-09-29 05:04:55
2881993 triumphspitfirepart.com 0 No Rank 2011-09-29 05:04:56
2881994 coursepack.com 6 No Rank 2011-09-29 05:04:56
2881995 tristateohv.com 3 No Rank 2011-09-29 05:04:59
2881996 tristatecoatingsal.com 0 No Rank 2011-09-29 05:05:00
2881997 agseminary.edu 5 No Rank 2011-09-29 05:05:02
2881998 copagcards.com 2 1206725 2011-09-29 05:05:03
2881999 tripodpads.com 4 14384620 2011-09-29 05:05:07